Flag for Slovenia Weather past 2 weeks in Ljubljana, Slovenia

Now
62 °F

Mild.


Feels Like: 62 °F
Forecast: 55 / 76 °F
Wind: 1 mph from Northeast

Location: Ljubljana / Bezigrad

Current Time: Aug 31, 2014 at 12:39:34 AM

Latest Report: Aug 31, 2014 at 12:00 AM


Visibility: N/A

Pressure: 30.06 "Hg

Humidity: 87%

Dew point: 58 °F

Location of LjubljanaLocation

Historic Weather in Ljubljana — Graph

°F

Ljubljana temperature yesterday

Maximum temperature yesterday: 79 °F (at 5:00 PM)
Minimum temperature yesterday: 54 °F (at 7:00 AM)
Average temperature yesterday: 66 °F

Past Weeks' High & Low Weather Summary

 TemperatureHumidityPressure
High80 °F (Aug 27, 5:00 PM)98% (Aug 15, 11:00 PM)30.17 "Hg (Aug 15, 11:00 PM)
Low52 °F (Aug 29, 7:00 AM)32% (Aug 17, 4:00 PM)29.78 "Hg (Aug 27, 5:00 AM)
Average63 °F80%30.00 "Hg
* Reported Aug 15 10:00 PM — Aug 30 10:00 PM, Ljubljana, Weather by CustomWeather, © 2014

Note: Actual official high and low records may vary slightly from our data, if they occured in-between our weather recording intervals... More about our weather records

Advertising

Ljubljana weather history for previous 24 hours

 ConditionsComfort  
Time TempWeatherWind HumidityBarometerVisibility
10:00 PM
Aug 30
66 °FPassing clouds.No wind77%30.04 "Hg16 mi
9:00 PM68 °FPassing clouds.2 mph70%30.03 "Hg16 mi
8:00 PM71 °FPassing clouds.2 mph63%30.00 "Hg16 mi
7:00 PM74 °FPartly sunny.1 mph57%29.98 "Hg17 mi
6:00 PM78 °FScattered clouds.2 mph51%29.98 "Hg17 mi
5:00 PM79 °FScattered clouds.2 mph46%29.98 "Hg19 mi
3:00 PM79 °FPartly sunny.2 mph46%30.00 "Hg19 mi
2:00 PM78 °FPartly sunny.3 mph49%30.01 "Hg17 mi
1:00 PM76 °FScattered clouds.2 mph56%30.03 "Hg25 mi
12:00 PM73 °FScattered clouds.1 mph63%30.05 "Hg25 mi
11:00 AM67 °FScattered clouds.1 mph72%30.07 "Hg25 mi
10:00 AM63 °FScattered clouds.1 mph85%30.09 "Hg19 mi
9:00 AM58 °FScattered clouds.1 mph91%30.10 "Hg1 mi
8:00 AM56 °FFog.1 mph97%30.10 "Hg1 mi
7:00 AM54 °FFog.1 mph98%30.10 "Hg1 mi
6:00 AM55 °FClear.No wind96%30.10 "Hg25 mi
5:00 AM56 °FCool.No wind96%30.09 "HgN/A
4:00 AM56 °FCool.No wind95%30.10 "HgN/A
3:00 AM57 °FCool.No wind95%30.09 "HgN/A
2:00 AM58 °FCool.No wind93%30.09 "HgN/A
1:00 AM60 °FCool.1 mph91%30.10 "HgN/A
12:00 AM61 °FCool.1 mph89%30.09 "HgN/A
Weather by CustomWeather, © 2014

See weather overviewHow to use our weather pages